#timestamp,LO_Frequency,Hit 
1505044815.5,286046996.9,N
1505044835.3,286046999.4,N
1505044855.1,286046999.2,N
1505044875.9,286046997.5,N
1505044895.7,286046997.4,N
1505044915.5,286046995.6,P
1505044935.4,286046996.6,P
1505044955.2,286046998.5,N
1505044975.0,286047000.5,N
1505044975.9,286047000.5,N
1505044995.8,286047000.8,N
1505045015.6,286047000.2,N
1505045035.4,286047002.2,N
1505045055.3,286047000.4,N
1505045075.1,286047000.9,N
1505045076.0,286047000.9,N
1505045095.8,286046998.2,N
1505045115.7,286046998.8,N
1505045135.5,286047001.2,N
1505045155.3,286046999.1,N
1505045175.2,286046996.6,N
1505045195.9,286046999.1,N
1505045215.7,286046996.5,N
1505045235.5,286046997.2,N
1505045255.4,286046999.5,N
1505045275.2,286046998.9,N
1505045295.0,286046997.0,N
1505045295.9,286046997.0,N
1505045315.8,286046997.4,N
1505045335.6,286046996.6,N
1505045355.4,286046997.2,N
1505045375.3,286046999.5,N
1505045395.1,286046999.5,N
1505045396.0,286046999.5,N
1505045415.8,286046998.7,N
1505045435.7,286047000.7,N
1505045455.5,286046999.4,N
1505045475.3,286046996.5,N
1505045495.2,286046997.2,N
1505045515.9,286046999.6,N
1505045535.7,286046996.6,N
1505045555.5,286046998.1,N
1505045575.4,286047000.5,N
1505045595.2,286046998.3,N
1505045615.0,286047000.7,N
1505045615.9,286047000.7,N
1505045635.8,286047000.4,N
1505045655.6,286047000.6,N
1505045675.4,286047000.7,N
1505045695.3,286046998.4,N
1505045715.1,286046999.0,N
1505045735.8,286046998.5,N
1505045755.7,286046998.6,N
1505045775.5,286046999.2,N
1505045795.3,286046999.3,N
1505045815.2,286046996.7,N
1505045835.9,286046996.9,N
1505045855.7,286046996.8,N
1505045875.5,286046996.7,N
1505045895.4,286046998.4,N
1505045915.2,286046999.4,N
1505045935.0,286047001.2,N
1505045935.9,286047001.2,N
1505045955.8,286046996.9,N
1505045975.6,286046997.1,N
1505045995.4,286046998.7,N
1505046015.3,286046998.8,N
1505046035.1,286046998.3,N
1505046055.8,286047000.9,N
1505046075.7,286047000.8,N
1505046095.5,286046999.2,N
1505046115.3,286046999.1,N
1505046135.2,286047000.3,N
1505046155.9,286046998.4,N
1505046175.7,286047000.5,N
1505046195.6,286047000.9,N
1505046215.4,286047001.2,N
1505046235.2,286046998.8,N
1505046255.0,286047000.0,N
1505046256.0,286047000.0,N
1505046275.8,286047000.5,N
1505046295.6,286046998.6,N
1505046315.4,286046998.4,N
1505046335.3,286047001.2,N
1505046355.1,286047000.3,N
1505046375.8,286046999.5,N
1505046395.7,286046994.9,P
1505046415.5,286046994.9,N
1505046435.3,286046999.6,N
1505046455.2,286046998.9,N
1505046475.9,286046997.0,N
1505046495.7,286046999.6,N
1505046515.6,286046998.0,N
1505046535.4,286046997.3,N
1505046555.2,286046999.0,N
1505046575.1,286046997.1,N
1505046576.0,286046997.1,N
1505046595.8,286046996.8,N
1505046615.6,286046997.2,N
1505046635.5,286046996.5,N
1505046655.3,286046999.3,N
1505046675.1,286046998.9,N
1505046695.8,286046999.4,N
1505046715.7,286046998.7,N
1505046735.5,286047000.7,N
1505046755.3,286047000.7,N
1505046775.2,286047000.4,N
1505046795.9,286047002.4,N
1505046815.7,286047002.6,N
1505046835.6,286046998.3,N
1505046855.4,286047000.5,N
1505046875.2,286047000.4,N
1505046895.1,286046998.3,N
1505046896.0,286046998.3,N
1505046915.8,286046998.9,N
1505046935.6,286046998.9,N
1505046955.5,286046998.5,N
1505046975.3,286046999.6,N
1505046995.1,286047001.0,N
1505047015.8,286046998.5,N
1505047035.7,286046999.9,N
1505047055.5,286047000.0,N
1505047075.3,286047000.7,N
1505047095.2,286046998.5,N
1505047115.9,286047001.2,N
1505047135.7,286046998.2,N
1505047155.6,286046998.1,N
1505047175.4,286046999.6,N
1505047195.2,286046998.8,N
1505047215.1,286046996.7,N
1505047216.0,286046996.7,N
1505047235.8,286046996.9,N
1505047255.6,286046999.4,N
1505047275.5,286047000.9,N
1505047295.3,286046998.5,N
1505047315.1,286046996.5,N
1505047335.8,286046998.8,N
1505047355.7,286046996.6,N
1505047375.5,286046997.9,N
1505047395.3,286046997.2,N
1505047415.2,286046998.9,N
1505047435.9,286046999.2,N
1505047455.7,286046999.6,N
1505047475.6,286046995.4,P
1505047495.4,286046997.2,N
1505047515.2,286046997.4,N
1505047535.1,286046997.4,N
1505047536.0,286046997.4,N
1505047555.8,286046996.7,P
1505047575.6,286046999.9,N
1505047595.5,286047000.7,N
1505047615.3,286047001.5,N
1505047635.1,286046999.7,N
1505047655.9,286047001.1,N
1505047675.7,286046999.9,N
1505047695.5,286047001.7,N
1505047715.4,286047003.7,N
1505047735.2,286047003.3,N
1505047755.0,286047005.9,N
1505047755.9,286047005.9,N
1505047775.8,286047005.0,N
1505047795.6,286047005.4,N
1505047815.4,286047007.4,N
1505047835.2,286047007.1,N
1505047855.1,286047005.1,N
1505047856.0,286047005.1,N
1505047875.8,286047006.0,N
1505047895.6,286047007.4,N
1505047915.5,286047005.4,N
1505047935.3,286047003.5,N
1505047955.1,286047004.3,N
1505047975.9,286047004.3,N
1505047995.7,286047004.0,N
1505048015.5,286047004.1,N
1505048035.4,286047004.4,N
1505048055.2,286047001.8,N
1505048075.0,286047002.0,N
1505048075.9,286047002.0,N
1505048095.8,286047001.6,N
1505048115.6,286047004.1,N
1505048135.4,286047002.0,N
1505048155.2,286047001.6,N
1505048175.1,286047002.5,N
1505048176.0,286047002.5,N
1505048195.8,286047003.0,N
1505048215.6,286047004.1,N
1505048235.5,286047003.5,N
1505048255.3,286047003.6,N
1505048275.1,286047003.0,N
1505048295.9,286047001.7,N
1505048315.7,286047004.4,N
1505048335.5,286047004.1,N
1505048355.4,286047004.4,N
1505048375.2,286047001.9,N
1505048395.0,286047001.9,N
1505048395.9,286047001.9,N
